| time (UTC) | temp F | wind direction | speed knots | gust knots | rain 1hr in | rain 24hr in | rain mn in | humidity % | barometer mb |
| 20260904101554 | 64 | 228 | 0.0 | 0.0 | 0.00 | 0.00 | 0.00 | 86 | 1012.4 |
| 20260904100112 | 64 | 228 | 0.0 | 0.0 | 0.00 | 0.00 | 0.00 | 86 | 1012.5 |
| 20260904094600 | 63 | 155 | 0.0 | 0.0 | 0.00 | 0.00 | 0.00 | 86 | 1012.4 |
| 20260904093052 | 63 | 155 | 0.0 | 0.0 | 0.00 | 0.00 | 0.00 | 86 | 1012.4 |
| 20260904091551 | 63 | 155 | 0.0 | 0.0 | 0.00 | 0.00 | 0.00 | 86 | 1012.4 |
| 20260904090050 | 63 | 155 | 0.0 | 0.0 | 0.00 | 0.00 | 0.00 | 86 | 1012.5 |
| 20260904084549 | 63 | 155 | 0.0 | 0.0 | 0.00 | 0.00 | 0.00 | 86 | 1012.5 |
| 20260904083050 | 62 | 155 | 0.0 | 0.0 | 0.00 | 0.00 | 0.00 | 85 | 1012.6 |
| 20260904081546 | 62 | 155 | 0.0 | 0.0 | 0.00 | 0.00 | 0.00 | 84 | 1012.7 |
| 20260904080044 | 62 | 155 | 0.0 | 0.0 | 0.00 | 0.00 | 0.00 | 84 | 1012.7 |
| 20260904074543 | 63 | 155 | 0.0 | 0.0 | 0.00 | 0.00 | 0.00 | 83 | 1012.8 |
| 20260904073040 | 63 | 155 | 0.0 | 0.0 | 0.00 | 0.00 | 0.00 | 82 | 1012.7 |
| 20260904071538 | 63 | 155 | 0.0 | 0.0 | 0.00 | 0.00 | 0.00 | 82 | 1012.8 |
| 20260904070041 | 64 | 155 | 0.0 | 0.0 | 0.00 | 0.00 | 0.00 | 81 | 1012.8 |
| 20260904064533 | 64 | 155 | 0.0 | 0.0 | 0.00 | 0.00 | 0.00 | 81 | 1012.9 |
| 20260904063035 | 65 | 155 | 0.0 | 0.0 | 0.00 | 0.00 | 0.00 | 80 | 1012.8 |
| 20260904061532 | 65 | 155 | 0.0 | 0.0 | 0.00 | 0.00 | 0.00 | 80 | 1012.6 |
| 20260904060057 | 65 | 155 | 0.0 | 0.0 | 0.00 | 0.00 | 0.00 | 79 | 1012.7 |
| 20260904054531 | 66 | 155 | 0.0 | 0.0 | 0.00 | 0.00 | 0.00 | 79 | 1012.8 |
| 20260904053100 | 66 | 155 | 0.0 | 1.7 | 0.00 | 0.00 | 0.00 | 78 | 1012.6 |
| 20260904051538 | 66 | 155 | 0.0 | 1.7 | 0.00 | 0.00 | 0.00 | 78 | 1012.8 |
| 20260904050034 | 67 | 155 | 0.0 | 1.7 | 0.00 | 0.00 | 0.00 | 77 | 1012.8 |
| 20260904044530 | 67 | 247 | 0.0 | 1.7 | 0.00 | 0.00 | 0.00 | 76 | 1012.7 |
| 20260904043029 | 68 | 213 | 0.0 | 1.7 | 0.00 | 0.00 | 0.00 | 75 | 1012.6 |
| 20260904041529 | 68 | 203 | 0.0 | 0.9 | 0.00 | 0.00 | 0.00 | 74 | 1012.6 |
| 20260904040028 | 69 | 209 | 0.0 | 0.9 | 0.00 | 0.00 | 0.00 | 73 | 1012.4 |
| 20260904034527 | 69 | 203 | 0.0 | 0.9 | 0.00 | 0.00 | 0.00 | 72 | 1012.4 |
| 20260904033027 | 69 | 224 | 0.0 | 1.7 | 0.00 | 0.00 | 0.00 | 71 | 1012.4 |
| 20260904031526 | 70 | 217 | 0.0 | 0.9 | 0.00 | 0.00 | 0.00 | 69 | 1012.2 |
| 20260904030026 | 71 | 243 | 0.0 | 5.2 | 0.00 | 0.00 | 0.00 | 68 | 1012.1 |
| 20260904024528 | 71 | 254 | 0.0 | 3.5 | 0.00 | 0.00 | 0.00 | 66 | 1012.1 |
| 20260904023024 | 72 | 236 | 0.0 | 1.7 | 0.00 | 0.00 | 0.00 | 65 | 1011.9 |
| 20260904021524 | 72 | 173 | 1.7 | 7.0 | 0.00 | 0.00 | 0.00 | 64 | 1011.8 |
| 20260904020023 | 73 | 267 | 1.7 | 5.2 | 0.00 | 0.00 | 0.00 | 63 | 1012.0 |
| 20260904014523 | 74 | 251 | 1.7 | 4.3 | 0.00 | 0.00 | 0.00 | 62 | 1011.9 |
| 20260904013023 | 76 | 157 | 0.9 | 5.2 | 0.00 | 0.00 | 0.00 | 59 | 1011.9 |
| 20260904011522 | 76 | 248 | 1.7 | 5.2 | 0.00 | 0.00 | 0.00 | 58 | 1012.0 |
| 20260904010021 | 78 | 255 | 1.7 | 6.1 | 0.00 | 0.00 | 0.00 | 56 | 1012.0 |
| 20260904004519 | 79 | 255 | 2.6 | 7.8 | 0.00 | 0.00 | 0.00 | 53 | 1012.0 |
| 20260904003019 | 79 | 163 | 2.6 | 7.8 | 0.00 | 0.00 | 0.00 | 49 | 1011.9 |
| 20260904001518 | 80 | 225 | 3.5 | 10.4 | 0.00 | 0.00 | 0.00 | 50 | 1011.8 |
| 20260904000015 | 82 | 158 | 3.5 | 7.0 | 0.00 | 0.00 | 0.00 | 49 | 1011.7 |
| 20260903234515 | 82 | 91 | 2.6 | 8.7 | 0.00 | 0.00 | 0.00 | 49 | 1011.7 |
| 20260903233012 | 83 | 199 | 3.5 | 9.6 | 0.00 | 0.00 | 0.00 | 49 | 1011.8 |
| 20260903231512 | 83 | 164 | 3.5 | 7.8 | 0.00 | 0.00 | 0.00 | 47 | 1012.0 |
| 20260903230013 | 83 | 165 | 4.3 | 7.8 | 0.00 | 0.00 | 0.00 | 48 | 1012.0 |
| 20260903224509 | 83 | 224 | 3.5 | 8.7 | 0.00 | 0.00 | 0.00 | 48 | 1012.1 |
| 20260903223009 | 84 | 238 | 3.5 | 7.0 | 0.00 | 0.00 | 0.00 | 45 | 1012.2 |
| 20260903221506 | 84 | 224 | 2.6 | 7.8 | 0.00 | 0.00 | 0.00 | 45 | 1012.3 |
| 20260903220003 | 84 | 175 | 2.6 | 10.4 | 0.00 | 0.00 | 0.00 | 46 | 1012.3 |
| 20260903214502 | 84 | 124 | 4.3 | 10.4 | 0.00 | 0.00 | 0.00 | 47 | 1012.4 |
| 20260903213000 | 85 | 177 | 2.6 | 11.3 | 0.00 | 0.00 | 0.00 | 47 | 1012.4 |
| 20260903211600 | 85 | 156 | 5.2 | 12.2 | 0.00 | 0.00 | 0.00 | 46 | 1012.7 |
| 20260903210137 | 86 | 231 | 4.3 | 11.3 | 0.00 | 0.00 | 0.00 | 46 | 1012.5 |
| 20260903204558 | 85 | 172 | 6.1 | 10.4 | 0.00 | 0.00 | 0.00 | 45 | 1012.5 |
| 20260903203057 | 86 | 280 | 4.3 | 10.4 | 0.00 | 0.00 | 0.00 | 46 | 1012.6 |
| 20260903201556 | 87 | 214 | 3.5 | 11.3 | 0.00 | 0.00 | 0.00 | 44 | 1012.6 |
| 20260903200054 | 87 | 149 | 3.5 | 8.7 | 0.00 | 0.00 | 0.00 | 41 | 1012.6 |
| 20260903194552 | 86 | 182 | 5.2 | 8.7 | 0.00 | 0.00 | 0.00 | 33 | 1012.9 |
| 20260903193049 | 87 | 232 | 1.7 | 7.0 | 0.00 | 0.00 | 0.00 | 33 | 1013.0 |
| 20260903191548 | 85 | 103 | 2.6 | 5.2 | 0.00 | 0.00 | 0.00 | 33 | 1013.0 |
| 20260903190046 | 85 | 159 | 1.7 | 6.1 | 0.00 | 0.00 | 0.00 | 34 | 1013.3 |
| 20260903184550 | 84 | 261 | 0.0 | 7.8 | 0.00 | 0.00 | 0.00 | 34 | 1013.5 |
| 20260903183039 | 84 | 144 | 1.7 | 7.8 | 0.00 | 0.00 | 0.00 | 36 | 1013.9 |
| 20260903181537 | 83 | 192 | 0.9 | 7.8 | 0.00 | 0.00 | 0.00 | 37 | 1014.1 |
| 20260903180035 | 81 | 236 | 1.7 | 5.2 | 0.00 | 0.00 | 0.00 | 34 | 1014.1 |
| 20260903174526 | 79 | 195 | 0.9 | 5.2 | 0.00 | 0.00 | 0.00 | 42 | 1014.3 |
| 20260903173023 | 79 | 159 | 2.6 | 5.2 | 0.00 | 0.00 | 0.00 | 43 | 1014.4 |
| 20260903171525 | 77 | 130 | 0.0 | 6.1 | 0.00 | 0.00 | 0.00 | 46 | 1014.4 |
| 20260903170016 | 75 | 250 | 1.7 | 5.2 | 0.00 | 0.00 | 0.00 | 48 | 1014.6 |
| 20260903164510 | 74 | 157 | 0.0 | 4.3 | 0.00 | 0.00 | 0.00 | 50 | 1014.6 |
| 20260903163013 | 72 | 290 | 1.7 | 4.3 | 0.00 | 0.00 | 0.00 | 52 | 1014.7 |
| 20260903161507 | 71 | 216 | 0.9 | 4.3 | 0.00 | 0.00 | 0.00 | 52 | 1014.8 |
| 20260903160058 | 69 | 153 | 0.0 | 1.7 | 0.00 | 0.00 | 0.00 | 57 | 1014.8 |
| 20260903154558 | 67 | 233 | 0.0 | 1.7 | 0.00 | 0.00 | 0.00 | 60 | 1014.9 |
| 20260903153050 | 66 | 109 | 0.0 | 0.0 | 0.00 | 0.00 | 0.00 | 61 | 1014.8 |
| 20260903151547 | 64 | 109 | 0.0 | 0.0 | 0.00 | 0.00 | 0.00 | 75 | 1014.9 |
| 20260903150054 | 62 | 109 | 0.0 | 0.0 | 0.00 | 0.00 | 0.00 | 81 | 1015.0 |
| 20260903144540 | 60 | 72 | 0.0 | 0.0 | 0.00 | 0.00 | 0.00 | 84 | 1014.9 |
| 20260903143033 | 59 | 72 | 0.0 | 0.0 | 0.00 | 0.00 | 0.00 | 85 | 1014.9 |
| 20260903141528 | 57 | 28 | 0.0 | 0.0 | 0.00 | 0.00 | 0.00 | 84 | 1014.7 |
| 20260903140024 | 56 | 14 | 0.0 | 0.0 | 0.00 | 0.00 | 0.00 | 84 | 1014.4 |
| 20260903134521 | 56 | 11 | 0.0 | 0.0 | 0.00 | 0.00 | 0.00 | 84 | 1014.4 |
| 20260903133019 | 57 | 10 | 0.0 | 0.0 | 0.00 | 0.00 | 0.00 | 84 | 1014.3 |
| 20260903131518 | 57 | 10 | 0.0 | 0.0 | 0.00 | 0.00 | 0.00 | 84 | 1014.3 |
| 20260903130017 | 57 | 10 | 0.0 | 0.0 | 0.00 | 0.00 | 0.00 | 84 | 1014.2 |
| 20260903124516 | 57 | 351 | 0.0 | 0.0 | 0.00 | 0.00 | 0.00 | 84 | 1014.2 |
| 20260903123016 | 57 | 34 | 0.0 | 0.0 | 0.00 | 0.00 | 0.00 | 84 | 1014.2 |
| 20260903121531 | 57 | 25 | 0.0 | 0.0 | 0.00 | 0.00 | 0.00 | 85 | 1014.0 |
| 20260903120013 | 57 | 42 | 0.0 | 0.0 | 0.00 | 0.00 | 0.00 | 85 | 1014.1 |
| 20260903114511 | 58 | 41 | 0.0 | 0.0 | 0.00 | 0.00 | 0.00 | 85 | 1014.1 |
| 20260903113012 | 58 | 15 | 0.0 | 0.0 | 0.00 | 0.00 | 0.00 | 85 | 1014.1 |
| 20260903111509 | 58 | 4 | 0.0 | 0.9 | 0.00 | 0.00 | 0.00 | 85 | 1014.3 |
| 20260903110007 | 58 | 5 | 0.0 | 0.0 | 0.00 | 0.00 | 0.00 | 85 | 1014.3 |
| 20260903104506 | 58 | 37 | 0.0 | 0.9 | 0.00 | 0.00 | 0.00 | 85 | 1014.3 |
| 20260903103004 | 59 | 14 | 0.0 | 1.7 | 0.00 | 0.00 | 0.00 | 85 | 1014.3 |